AirNav   Bose ProFlight Aviation Headset
 
 983 users online  

KCGS College Park Airport
College Park, Maryland, USA

GOING TO COLLEGE PARK?


FAA INFORMATION EFFECTIVE 16 AUGUST 2018

Location

FAA Identifier: CGS
Lat/Long: 38-58-50.1000N / 076-55-20.3000W
38-58.835000N / 076-55.338333W
38.9805833 / -76.9223056
(estimated)
Elevation: 48.4 ft. / 14.8 m (surveyed)
Variation: 11W (2000)
From city: 1 mile E of COLLEGE PARK, MD
Time zone: UTC -4 (UTC -5 during Standard Time)
Zip code: 20740

Airport Operations

Airport use: Open to the public
Activation date: 04/1940
Control tower: no
ARTCC: WASHINGTON CENTER
FSS: LEESBURG FLIGHT SERVICE STATION
NOTAMs facility: CGS (NOTAM-D service available)
Attendance: 0700-2200,
Pattern altitude: 1048.4 ft. MSL
Wind indicator: lighted
Segmented circle: yes
Lights: ACTVT MIRL RY 15/33; APAP RY 15 - CTAF 5 CLICKS.
Beacon: white-green (lighted land airport)
Operates sunset to sunrise.

Airport Communications

CTAF/UNICOM: 122.975
WX AWOS-3: 121.225 (301-864-5497)
POTOMAC APPROACH: 125.65(DC FRZ) 124.7
POTOMAC DEPARTURE: 125.65(DC FRZ) 124.7
IRONS STAR: 126.4
WX ASOS at DCA (9 nm SW): 132.65 (703-412-8140)
WX AWOS-3 at FME (10 nm NE): 123.925
WX AWOS-3PT at GAI (16 nm NW): 128.275 (301-977-2971)
WX ASOS at BWI (17 nm NE): PHONE 410-691-1278

Nearby radio navigation aids

VOR radial/distance  VOR name  Freq  Var
DCAr045/9.0WASHINGTON VOR/DME111.0009W
ADWr356/10.7ANDREWS VORTAC113.1010W
BALr238/16.7BALTIMORE VORTAC115.1011W
OTTr343/18.5NOTTINGHAM VORTAC113.7010W
AMLr092/25.5ARMEL VOR/DME113.5008W
EMIr183/31.0WESTMINSTER VORTAC117.9008W
FDKr149/(33.4)FREDERICK VOR109.0008W

 
NDB name  Hdg/Dist  Freq  Var  ID
GEORGETOWN081/9.932309WGTN --. - -.
OXONN032/13.833211WDCA -.. -.-. .-
ELLICOTT211/19.637111WFND ..-. -. -..
DAVEE034/21.122309WDAA -.. .- .-

Airport Services

Fuel available: 100LL JET-A
Parking: tiedowns
Airframe service: NONE
Powerplant service: NONE
Bottled oxygen: NONE
Bulk oxygen: NONE

Runway Information

Runway 15/33

Dimensions: 2607 x 60 ft. / 795 x 18 m
Surface: asphalt, in fair condition
Runway edge lights: medium intensity
Runway edge markings: MARKINGS FADED.
RUNWAY 15  RUNWAY 33
Latitude: 38-58.995650N38-58.674748N
Longitude: 076-55.520488W076-55.154692W
Elevation: 48.4 ft.39.1 ft.
Gradient: 0.4% DOWN0.4% UP
Traffic pattern: leftleft
Runway heading: 149 magnetic, 138 true329 magnetic, 318 true
Displaced threshold: 416 ft.201 ft.
Markings: nonprecision, in poor conditionnonprecision, in poor condition
Runway end identifier lights: nono
Touchdown point: yes, no lightsyes, no lights
Obstructions: 55 ft. trees, 619 ft. from runway, 32 ft. left of centerline, 7:1 slope to clear
APCH SLOPE AT CL 20:1 FM DSPLCD THLD AND CENTERLINE.
72 ft. trees, 1437 ft. from runway, 17:1 slope to clear
+15 FT FENCE 87 FT R AT THR; -6 FT DITCH 65 FT L AT THR.

Airport Ownership and Management from official FAA records

Ownership: Publicly-owned
Owner: MNCPPC
GOVERNOR ODEN BOWIE DR
UPPER MARLBORO, MD 20772
Phone 301-952-3261
MARYLAND NATIONAL CAPITAL PARK & PLANNING CMSN.
Manager: LEE SOMMER
1909 CORPORAL FRANK SCOTT DRIVE
COLLEGE PARK, MD 20740
Phone 301-864-5844

Airport Operational Statistics

Aircraft based on the field: 28
Single engine airplanes: 26
Helicopters: 2
    
Aircraft operations: avg 60/week *
59% local general aviation
32% transient general aviation
8% military
<1% air taxi
* for 12-month period ending 14 September 2017

Additional Remarks

NO TKOFS 2200-0700; LNDG ONLY.
TSNT PRKG: FIRST 4 HRS FREE; FEE AFT, WAIVED W/MIN FUEL PURCHASE; OVNGT FEE.
HEL RAMP FEE; WAIVED IF UNDER 3500 LBS OR MIN FUEL PURCHASE.
ACFT HANDLING FEE IF RELOCATION TO/FROM FUEL AREA RQRD BY ARPT PSNL.
BLDG 0.1 NM S OF ARPT 23 FT AGL LGTD.
CATEGORY 1 ACFT ONLY; NO ACFT OVER 8500 LBS MFR GROSS WT; HELICOPTERS ONLY WITH 24 HR PPR - CALL AMGR 301-864-5844.
NOISE ABATEMENT PROCEDURES IN EFFECT CTC AMGR 301-864-5844.
AER 15 HEAVY SMOKE & FIREFIGHTING TRAINING OPNS INTERMITTENTLY IN PROGRESS.
NO STUDENT TGL OR SOLO OPNS PERMITTED.
DEER AND OTHER WILDLIFE ON & INVOF ARPT.
COMPLIANCE WITH 14CFR SECTION 93.335 IS REQUIRED BEFORE PILOTS MAY OPERATE TO/FROM THIS AIRPORT.
FOR CD CTC POTOMAC APCH AT 866-599-3874.

Instrument Procedures

NOTE: All procedures below are presented as PDF files. If you need a reader for these files, you should download the free Adobe Reader.

NOT FOR NAVIGATION. Please procure official charts for flight.
FAA instrument procedures published for use from 16 August 2018 at 0901Z to 13 September 2018 at 0900Z.

 
IAPs - Instrument Approach Procedures
RNAV (GPS)-A   download (131KB)
RNAV (GPS)-B   download (125KB)
NOTE: Special Take-Off Minimums/Departure Procedures apply   download (140KB)

Other nearby airports with instrument procedures:

W00 - Freeway Airport (7 nm E)
KDCA - Ronald Reagan Washington National Airport (9 nm SW)
KFME - Tipton Airport (10 nm NE)
KADW - Joint Base Andrews (11 nm S)
W32 - Washington Executive Airport/Hyde Field (14 nm S)
KVKX - Potomac Airfield (14 nm S)
KGAI - Montgomery County Airpark (16 nm NW)
KBWI - Baltimore/Washington International Thurgood Marshall Airport (17 nm NE)
KANP - Lee Airport (17 nm E)
W50 - Davis Airport (19 nm NW)
 
Loc | Ops | Rwys | IFR | FBO | Links
Com | Nav | Svcs | Stats | Notes


 
Area around KCGS (College Park Airport)
 
Road maps at: MapQuest Bing Google
 
Aerial photo
WARNING: Photo may not be current or correct
Aerial photo of KCGS (College Park Airport)
Photo taken 19-Oct-2016
looking north.

Do you have a better or more recent aerial photo of College Park Airport that you would like to share? If so, please send us your photo.

 
Sectional chart

 
Airport distance calculator
Flying to College Park Airport? Find the distance to fly.

From to KCGS

Sunrise and sunset
Times for 19-Aug-2018
 Local
(UTC-4)
 Zulu
(UTC)
Morning civil twilight05:5709:57
Sunrise06:2610:26
Sunset19:5723:57
Evening civil twilight20:2500:25

Current date and time
Zulu (UTC)  19-Aug-2018 23:38:16
Local (UTC-4)  19-Aug-2018 19:38:16
 
METAR
KCGS 192314Z AUTO 06005KT 10SM SCT028 SCT033 OVC041 24/19 A2998 RMK AO1 T02420194
KDCA 
9nm SW 
192252Z 05008KT 10SM BKN036 BKN050 BKN250 27/19 A2996 RMK AO2 SLP146 T02720194
KFME 
10nm NE 
192312Z AUTO 05004KT 10SM SCT032 OVC046 23/20 A3001 RMK AO1
KADW 
10nm S 
192256Z AUTO 06009KT 10SM CLR 25/20 A2996 RMK AO2 SLP150 T02460198 $
KVKX 
14nm S 
SuperAWOS
192315Z AUTO 00000KT 10SM 25/21 A2998
KBWI 
16nm NE 
192254Z 05013KT 10SM SCT018 SCT032 BKN160 BKN250 24/21 A2998 RMK AO2 SLP150 T02390206
KGAI 
16nm NW 
192256Z AUTO VRB03KT 10SM FEW017 23/20 A3000 RMK AO2 SLP181 T02280200
KANP 
17nm E 
SuperAWOS
192255Z AUTO 00000KT 10SM 24/21 A2998
KDAA 
20nm SW 
192256Z AUTO 00000KT 10SM CLR 26/20 A2996 RMK AO2 SLP148 T02630201 $
TAF
KDCA 
9nm SW 
192102Z 1921/2024 03007KT P6SM SCT040 BKN250 FM200000 06007KT P6SM BKN020 BKN060 FM201700 07006KT P6SM SCT015 BKN035 FM202300 10006KT P6SM BKN025 BKN040
KADW 
10nm S 
191700Z 1917/2023 36006KT 9999 FEW020 FEW200 QNH2994INS BECMG 2001/2002 06006KT 6000 BR OVC010 QNH3005INS BECMG 2013/2014 06009KT 9999 NSW BKN020 OVC080 QNH3006INS TX28/1919Z TN20/2006Z
KBWI 
16nm NE 
192102Z 1921/2024 04007KT P6SM BKN025 BKN050 FM200100 07007KT P6SM BKN015 BKN040 FM201600 07006KT P6SM SCT015 BKN025 FM201800 07006KT P6SM SCT025 BKN035
NOTAMs
Click for the latest NOTAMs
NOTAMs are issued by the DoD/FAA and will open in a separate window not controlled by AirNav.

 

 
 

FBO, Fuel Providers, and Aircraft Ground Support

  
 Business Name 
 
 Contact 
 
 Services / Description 
 
Fuel Prices
 
Comments
  
College Park Airport 301-864-5844
no information available

If you are affiliated with College Park Airport and would like to show here your services, contact info, web link, logo, and more, click here
100LL Jet A
FS --- $4.58 
PS $5.00 --- 
 Updated 06-Aug-2018
 
   8 read write
FS=Full service
PS=Pump service
Update Fuel Prices
 

Getting Around: Taxi, Limo, Rental Cars, Mass Transit

  
 Business Name 
 
 Contact 
 
Services / Description
 
Comments
  
Metrorail [web site]
no information available

If you are affiliated with Metrorail and would like to show here your services, contact info, web link, logo, and more, click here
 
   3 read write
 

Things to do: Attractions on or near the airport

  
 Business Name 
 
 Contact 
 
 Services / Description 
 
Distance
 
Comments
  
College Park Aviation Museum 301-864-6029
no information available

If you are affiliated with College Park Aviation Museum and would like to show here your services, contact info, web link, logo, and more, click here
on airport  
   2 read write
 

Would you like to see your business listed on this page?

 If your business provides an interesting product or service to pilots, flight crews, aircraft, or users of the College Park Airport, you should consider listing it here.  To start the listing process, click on the button below
 
Add a business
 

Other Pages about College Park Airport

www.collegeparkairport.org
www.pgparks.com/...
 
Update a link
 
Copyright © AirNav, LLC. All rights reserved. Privacy Policy  Contact